Tracking 19193 objects as of 22-Jun-2018
HD Live streaming from Space Station
objects crossing your sky now

FENGYUN 1C DEB

Track FENGYUN 1C DEB now!
10-day predictions


NORAD ID: 33642
Int'l Code: 1999-025DEB
Perigee: 396.4 km
Apogee: 439.9 km
Inclination: 99.3 °
Period: 92.8 minutes
Semi major axis: 6789 km
RCS: 0.0145 m2 (small)
Launch date: May 10, 1999
Source: People's Republic of China (PRC)
Launch site: Taiyaun Space Center, China (TSC)

Note: This is SATELLITE DEBRIS
aabbcc
Your satellite tracking list
Your tracking list is empty




NASA's NSSDC Master Catalog

Two Line Element Set (TLE):
1 33642U 99025DEB 18169.23587237  .00057527  00000-0  93371-3 0  9997
2 33642  99.2751 322.3845 0032063   7.3944 352.7768 15.51960199554425
Source of the keplerian elements: AFSPC